When you browse on this site, cookies collect data to enhance your experience and personalize the content and advertising you see.
Visit our Privacy Policy to learn more. By continuing to use the site, you agree to this use of cookies and data.
  • In Latvia
  • List of Countries
  • For 7 days
  • Water Temperature
  • Satellite Maps
  • Weather Map
  • Weather Widgets
  • user-avatar
    Login

    Hourly Weather Qala i Naw

    Today, 16 June, Sunday

    Time Temperature Precipitation Wind Pressure Humidity
    00:00 +24°C° 0 mm 1 mps 680 mmHg 22%
    01:00 +23°C° 0 mm 1 mps 680 mmHg 24%
    02:00 +22°C° 0 mm 1 mps 680 mmHg 25%
    03:00 +22°C° 0 mm 1 mps 680 mmHg 26%
    04:00 +21°C° 0 mm 1 mps 679 mmHg 28%
    05:00 +23°C° 0 mm 1 mps 680 mmHg 25%
    06:00 +25°C° 0 mm 1 mps 681 mmHg 21%
    07:00 +28°C° 0 mm 1 mps 681 mmHg 18%
    08:00 +29°C° 0 mm 3 mps 681 mmHg 16%
    09:00 +32°C° 0 mm 4 mps 682 mmHg 14%
    10:00 +34°C° 0 mm 6 mps 682 mmHg 12%
    11:00 +35°C° 0 mm 7 mps 682 mmHg 12%
    12:00 +35°C° 0 mm 7 mps 682 mmHg 11%
    13:00 +37°C° 0 mm 8 mps 681 mmHg 11%
    14:00 +37°C° 0 mm 8 mps 681 mmHg 11%
    15:00 +37°C° 0 mm 8 mps 681 mmHg 11%
    16:00 +37°C° 0 mm 8 mps 680 mmHg 11%
    17:00 +34°C° 0 mm 8 mps 680 mmHg 13%
    18:00 +33°C° 0 mm 7 mps 680 mmHg 15%
    19:00 +30°C° 0 mm 6 mps 681 mmHg 17%
    20:00 +29°C° 0 mm 5 mps 680 mmHg 19%
    21:00 +28°C° 0 mm 4 mps 680 mmHg 21%
    22:00 +26°C° 0 mm 3 mps 680 mmHg 23%
    23:00 +25°C° 0 mm 3 mps 680 mmHg 24%

    Tomorrow, 17 June, Monday

    Time Temperature Precipitation Wind Pressure Humidity
    00:00 +24°C° 0 mm 2 mps 679 mmHg 26%
    01:00 +23°C° 0 mm 1 mps 679 mmHg 27%
    02:00 +22°C° 0 mm 1 mps 679 mmHg 29%
    03:00 +19°C° 0 mm 0 mps 679 mmHg 30%
    04:00 +19°C° 0 mm 0 mps 678 mmHg 31%
    05:00 +21°C° 0 mm 0 mps 679 mmHg 27%
    06:00 +23°C° 0 mm 0 mps 679 mmHg 23%
    07:00 +25°C° 0 mm 0 mps 680 mmHg 19%
    08:00 +29°C° 0 mm 2 mps 680 mmHg 17%
    09:00 +30°C° 0 mm 3 mps 680 mmHg 16%
    10:00 +33°C° 0 mm 4 mps 681 mmHg 14%
    11:00 +33°C° 0 mm 5 mps 680 mmHg 12%
    12:00 +34°C° 0 mm 6 mps 680 mmHg 11%
    13:00 +35°C° 0 mm 7 mps 680 mmHg 9%
    14:00 +35°C° 0 mm 7 mps 680 mmHg 9%
    15:00 +36°C° 0 mm 7 mps 679 mmHg 9%
    16:00 +36°C° 0 mm 7 mps 679 mmHg 9%
    17:00 +34°C° 0 mm 6 mps 679 mmHg 10%
    18:00 +33°C° 0 mm 5 mps 679 mmHg 12%
    19:00 +30°C° 0 mm 5 mps 679 mmHg 13%
    20:00 +28°C° 0 mm 3 mps 679 mmHg 15%
    21:00 +26°C° 0 mm 2 mps 679 mmHg 18%
    22:00 +25°C° 0 mm 1 mps 679 mmHg 20%
    23:00 +22°C° 0 mm 0 mps 678 mmHg 21%

    Day after tomorrow, 18 June, Tuesday

    Time Temperature Precipitation Wind Pressure Humidity
    00:00 +21°C° 0 mm 0 mps 678 mmHg 21%
    01:00 +21°C° 0 mm 0 mps 677 mmHg 22%
    02:00 +20°C° 0 mm 0 mps 677 mmHg 22%
    03:00 +20°C° 0 mm 0 mps 677 mmHg 23%
    04:00 +19°C° 0 mm 0 mps 677 mmHg 24%
    05:00 +21°C° 0 mm 0 mps 677 mmHg 21%
    06:00 +26°C° 0 mm 1 mps 678 mmHg 17%
    07:00 +28°C° 0 mm 1 mps 679 mmHg 14%
    08:00 +30°C° 0 mm 2 mps 679 mmHg 13%
    09:00 +32°C° 0 mm 4 mps 679 mmHg 12%
    10:00 +33°C° 0 mm 5 mps 680 mmHg 11%
    11:00 +34°C° 0 mm 6 mps 679 mmHg 11%
    12:00 +35°C° 0 mm 6 mps 679 mmHg 11%
    13:00 +36°C° 0 mm 7 mps 679 mmHg 11%
    14:00 +36°C° 0 mm 7 mps 679 mmHg 11%
    15:00 +37°C° 0 mm 8 mps 679 mmHg 11%
    16:00 +37°C° 0 mm 8 mps 678 mmHg 11%
    17:00 +34°C° 0 mm 7 mps 678 mmHg 13%
    18:00 +33°C° 0 mm 7 mps 678 mmHg 15%
    19:00 +30°C° 0 mm 6 mps 679 mmHg 17%
    20:00 +29°C° 0 mm 5 mps 678 mmHg 19%
    21:00 +27°C° 0 mm 3 mps 678 mmHg 21%
    22:00 +25°C° 0 mm 2 mps 678 mmHg 23%
    23:00 +24°C° 0 mm 1 mps 678 mmHg 24%

    19 June, Wednesday

    Time Temperature Precipitation Wind Pressure Humidity
    00:00 +24°C° 0 mm 1 mps 678 mmHg 25%
    01:00 +23°C° 0 mm 1 mps 677 mmHg 25%
    02:00 +20°C° 0 mm 0 mps 677 mmHg 26%
    03:00 +20°C° 0 mm 0 mps 677 mmHg 27%
    04:00 +19°C° 0 mm 0 mps 677 mmHg 28%
    05:00 +21°C° 0 mm 0 mps 677 mmHg 24%
    06:00 +23°C° 0 mm 0 mps 678 mmHg 21%
    07:00 +28°C° 0 mm 1 mps 678 mmHg 17%
    08:00 +29°C° 0 mm 2 mps 678 mmHg 16%
    09:00 +32°C° 0 mm 4 mps 679 mmHg 15%
    10:00 +34°C° 0 mm 6 mps 679 mmHg 13%
    11:00 +35°C° 0 mm 7 mps 679 mmHg 13%
    12:00 +35°C° 0 mm 8 mps 679 mmHg 13%
    13:00 +37°C° 0 mm 9 mps 678 mmHg 12%
    14:00 +37°C° 0 mm 9 mps 678 mmHg 12%
    15:00 +37°C° 0 mm 10 mps 678 mmHg 12%
    16:00 +37°C° 0 mm 10 mps 678 mmHg 12%
    17:00 +34°C° 0 mm 9 mps 678 mmHg 13%
    18:00 +33°C° 0 mm 7 mps 678 mmHg 14%
    19:00 +32°C° 0 mm 6 mps 678 mmHg 14%
    20:00 +29°C° 0 mm 5 mps 678 mmHg 16%
    21:00 +28°C° 0 mm 4 mps 678 mmHg 18%
    22:00 +27°C° 0 mm 3 mps 678 mmHg 19%
    23:00 +26°C° 0 mm 3 mps 678 mmHg 20%

    20 June, Thursday

    Time Temperature Precipitation Wind Pressure Humidity
    00:00 +25°C° 0 mm 2 mps 678 mmHg 21%
    01:00 +24°C° 0 mm 2 mps 677 mmHg 22%
    02:00 +24°C° 0 mm 2 mps 677 mmHg 23%
    03:00 +23°C° 0 mm 2 mps 677 mmHg 23%
    04:00 +23°C° 0 mm 2 mps 677 mmHg 24%
    05:00 +25°C° 0 mm 2 mps 677 mmHg 21%
    06:00 +27°C° 0 mm 3 mps 678 mmHg 19%
    07:00 +29°C° 0 mm 3 mps 678 mmHg 16%
    08:00 +30°C° 0 mm 4 mps 679 mmHg 15%
    09:00 +33°C° 0 mm 5 mps 679 mmHg 15%
    10:00 +34°C° 0 mm 6 mps 679 mmHg 14%
    11:00 +35°C° 0 mm 7 mps 679 mmHg 13%
    12:00 +37°C° 0 mm 8 mps 679 mmHg 12%
    13:00 +38°C° 0 mm 9 mps 679 mmHg 11%
    14:00 +38°C° 0 mm 9 mps 678 mmHg 11%
    15:00 +38°C° 0 mm 9 mps 678 mmHg 11%
    16:00 +37°C° 0 mm 9 mps 678 mmHg 11%
    17:00 +35°C° 0 mm 8 mps 678 mmHg 12%
    18:00 +33°C° 0 mm 6 mps 678 mmHg 12%
    19:00 +32°C° 0 mm 4 mps 678 mmHg 13%
    20:00 +29°C° 0 mm 4 mps 678 mmHg 15%
    21:00 +28°C° 0 mm 3 mps 678 mmHg 17%
    22:00 +26°C° 0 mm 2 mps 678 mmHg 19%
    23:00 +26°C° 0 mm 2 mps 678 mmHg 19%

    21 June, Friday

    Time Temperature Precipitation Wind Pressure Humidity
    00:00 +25°C° 0 mm 2 mps 677 mmHg 20%
    01:00 +25°C° 0 mm 2 mps 677 mmHg 20%
    02:00 +24°C° 0 mm 2 mps 677 mmHg 21%
    03:00 +24°C° 0 mm 2 mps 677 mmHg 22%
    04:00 +23°C° 0 mm 2 mps 677 mmHg 22%
    05:00 +25°C° 0 mm 2 mps 678 mmHg 20%
    06:00 +28°C° 0 mm 2 mps 678 mmHg 18%
    07:00 +30°C° 0 mm 2 mps 679 mmHg 15%
    08:00 +31°C° 0 mm 3 mps 679 mmHg 15%
    09:00 +34°C° 0 mm 4 mps 679 mmHg 14%
    10:00 +35°C° 0 mm 5 mps 679 mmHg 14%
    11:00 +36°C° 0 mm 6 mps 679 mmHg 13%
    12:00 +38°C° 0 mm 7 mps 679 mmHg 12%
    13:00 +39°C° 0 mm 8 mps 679 mmHg 11%
    14:00 +39°C° 0 mm 8 mps 679 mmHg 10%
    15:00 +39°C° 0 mm 9 mps 678 mmHg 10%
    16:00 +38°C° 0 mm 9 mps 678 mmHg 10%
    17:00 +37°C° 0 mm 8 mps 678 mmHg 10%
    18:00 +34°C° 0 mm 6 mps 678 mmHg 11%
    19:00 +32°C° 0 mm 5 mps 678 mmHg 11%
    20:00 +30°C° 0 mm 4 mps 678 mmHg 13%
    21:00 +29°C° 0 mm 3 mps 678 mmHg 15%
    22:00 +27°C° 0 mm 3 mps 679 mmHg 16%
    23:00 +26°C° 0 mm 2 mps 678 mmHg 16%
    Show more